Voltar ao catálogo

CZ-6A DEB

AtivoPO
NORAD 60896·DEBRIS·🇨🇳 China

Lançado Aug 6, 2024 de Taiyuan Satellite Launch Center

Loading…

Próximas Passagens (próximas 24 horas)

TLE

AtualizadoSource: Space-Track

Época: Sep 14, 2026, 13:09 UTC

1 60896U 24140LB  26257.54834274  .00000764  00000-0  28681-3 0  9994
2 60896  88.3509 203.6281 0057258 142.9371 217.5800 14.29662133108032

Acompanhe CZ-6A DEB em tempo real com AllMySat

Download on the App Store